ミュラー第5彗星

173P/Mueller 5 (2008)

English version
Home page
Total 6,336 html files since Dec. 4, 1995
Updated on October 12, 2008

---------------------------------------------------------------------

・ プロフィール

符号 173P/2005 T1
検出日 2005年10月7日
検出光度 18.0等
検出者 E. J. Christensen (Mt. Lemmon Survey)

・ 写真集

・ 軌道要素

                    Epoch = 2008 May  14.0 TT
     T = 2008 May  18.5222 TT         Peri. =  29.8348
     e = 0.261149                     Node  = 100.5697  2000.0
     q = 4.214478 AU                  Incl. =  16.4959
       a =  5.704097 AU    n = 0.0723475    P =  13.62 years

・ 星図

・ 光度変化

        m1 = -14 + 5 logΔ + 45 log r(t + 600)

---------------------------------------------------------------------

軌道要素は Dr. Brian G. Marsden の計算によるもので、 IAUC 8613 に掲載されたものです。
星図は StellaNavigator Ver.2.0 for Windows (アストロアーツ 編著 / アスキー出版局刊) で作成したものです。
光度グラフはComet for Windowsで作成したものです。

---------------------------------------------------------------------

Copyright(C) 1995-2008 Seiichi Yoshida (comet@aerith.net). All rights reserved.